FW6463 Weather Reports


time (UTC)temp
F
wind
direction
speed
knots
gust
knots
rain 1hr
in
rain 24hr
in
rain mn
in
humidity
%
barometer
mb
20260508091028 37 167 0.9 2.6 0.00 0.00 0.00 94 1016.7
20260508090015 38 180 0.0 1.7 0.00 0.00 0.00 94 1016.6
20260508085021 38 157 1.7 2.6 0.00 0.00 0.00 93 1016.6
20260508084025 38 172 1.7 2.6 0.00 0.00 0.00 93 1016.6
20260508083049 38 159 1.7 2.6 0.00 0.00 0.00 93 1016.5
20260508082037 38 162 1.7 1.7 0.00 0.00 0.00 93 1016.4
20260508081021 39 176 1.7 2.6 0.00 0.00 0.00 93 1016.4
20260508080026 39 162 1.7 2.6 0.00 0.00 0.00 92 1016.4
20260508075025 39 170 1.7 2.6 0.00 0.00 0.00 92 1016.3
20260508074026 39 180 1.7 2.6 0.00 0.00 0.00 92 1016.3
20260508073017 40 158 0.0 1.7 0.00 0.00 0.00 90 1016.4
20260508072021 40 166 1.7 2.6 0.00 0.00 0.00 89 1016.3
20260508071026 41 167 0.9 2.6 0.00 0.00 0.00 87 1016.4
20260508070031 41 161 1.7 2.6 0.00 0.00 0.00 86 1016.3
20260508065018 42 172 1.7 2.6 0.00 0.00 0.00 85 1016.3
20260508064023 43 170 0.9 1.7 0.00 0.00 0.00 82 1016.3
20260508063027 43 177 1.7 3.5 0.00 0.00 0.00 81 1016.3
20260508062046 44 0.0 0.0 0.00 0.00 0.00 78 1016.4
20260508061019 45 181 0.9 1.7 0.00 0.00 0.00 75 1016.3
20260508060023 46 153 0.9 1.7 0.00 0.00 0.00 72 1016.3
20260508055023 47 165 0.9 1.7 0.00 0.00 0.00 70 1016.3
20260508054035 48 24 0.9 2.6 0.00 0.00 0.00 68 1016.3
20260508053020 49 338 2.6 6.1 0.00 0.00 0.00 68 1016.2
20260508052059 49 327 1.7 5.2 0.00 0.00 0.00 67 1016.2
20260508051037 50 307 1.7 3.5 0.00 0.00 0.00 67 1016.0
20260508050016 51 299 1.7 5.2 0.00 0.00 0.00 66 1015.8
20260508045041 51 308 3.5 7.8 0.00 0.00 0.00 66 1015.7
20260508044026 51 338 3.5 7.8 0.00 0.00 0.00 66 1015.6
20260508043030 52 315 5.2 9.6 0.00 0.00 0.00 65 1015.5
20260508042018 52 328 3.5 7.8 0.00 0.00 0.00 63 1015.2
20260508041022 52 309 5.2 7.8 0.00 0.00 0.00 63 1015.0
20260508040027 50 284 2.6 4.3 0.00 0.00 0.00 66 1014.7
20260508035032 48 276 1.7 3.5 0.00 0.00 0.00 70 1014.6
20260508034018 46 318 0.9 4.3 0.00 0.00 0.00 77 1014.5
20260508033024 46 161 0.9 1.7 0.00 0.00 0.00 82 1014.4
20260508032028 47 171 0.9 1.7 0.00 0.00 0.00 78 1014.4
20260508031033 47 191 0.0 0.9 0.00 0.00 0.00 78 1014.0
20260508030020 48 163 0.9 1.7 0.00 0.00 0.00 75 1014.0
20260508025024 48 174 1.7 1.7 0.00 0.00 0.00 76 1014.0
20260508024029 48 180 1.7 1.7 0.00 0.00 0.00 77 1014.0
20260508023016 49 169 1.7 1.7 0.00 0.00 0.00 77 1013.9
20260508022021 50 170 1.7 2.6 0.00 0.00 0.00 74 1013.9
20260508021025 51 178 1.7 2.6 0.00 0.00 0.00 69 1013.7
20260508020050 51 181 1.7 1.7 0.00 0.00 0.00 70 1013.5
20260508015016 51 192 1.7 3.5 0.00 0.00 0.00 71 1013.5
20260508014022 52 182 1.7 2.6 0.00 0.00 0.00 67 1013.5
20260508013028 52 183 0.9 1.7 0.00 0.00 0.00 65 1013.3
20260508012031 53 225 0.0 0.9 0.00 0.00 0.00 64 1013.2
20260508011018 54 248 0.0 1.7 0.00 0.00 0.00 62 1013.0
20260508010023 55 191 0.9 1.7 0.00 0.00 0.00 61 1013.0
20260508005027 57 201 0.9 1.7 0.00 0.00 0.00 57 1012.8
20260508004032 58 235 2.6 4.3 0.00 0.00 0.00 53 1012.7
20260508003019 58 277 2.6 4.3 0.00 0.00 0.00 51 1012.6
20260508002025 59 282 2.6 5.2 0.00 0.00 0.00 50 1012.5
20260508001028 60 333 4.3 6.1 0.00 0.00 0.00 50 1012.4
20260508000033 61 283 2.6 5.2 0.00 0.00 0.00 49 1012.2
20260507235041 61 298 3.5 5.2 0.00 0.00 0.00 48 1012.2
20260507234025 62 311 3.5 7.0 0.00 0.00 0.00 48 1012.2
20260507233030 63 321 4.3 7.0 0.00 0.00 0.00 47 1012.0
20260507232016 63 280 3.5 6.1 0.00 0.00 0.00 46 1011.9
20260507231021 63 283 4.3 6.1 0.00 0.00 0.00 46 1011.8
20260507230027 64 293 4.3 6.1 0.00 0.00 0.00 45 1011.7
20260507225030 67 299 4.3 7.8 0.00 0.00 0.00 42 1011.6
20260507224017 67 298 6.1 9.6 0.00 0.00 0.00 43 1011.6
20260507223022 68 303 6.1 8.7 0.00 0.00 0.00 42 1011.5
20260507222026 68 309 3.5 7.0 0.00 0.00 0.00 42 1011.5
20260507221025 66 315 5.2 6.1 0.00 0.00 0.00 44 1011.2
20260507220018 68 285 4.3 9.6 0.00 0.00 0.00 42 1011.2
20260507215023 68 295 4.3 6.1 0.00 0.00 0.00 42 1011.2
20260507214021 68 326 4.3 7.8 0.00 0.00 0.00 42 1011.2
20260507213019 69 287 2.6 6.1 0.00 0.00 0.00 41 1011.1
20260507212018 69 286 4.3 6.1 0.00 0.00 0.00 41 1011.3
20260507211017 69 349 4.3 7.0 0.00 0.00 0.00 41 1011.1
20260507210016 68 287 3.5 5.2 0.00 0.00 0.00 41 1011.3
20260507205033 68 310 4.3 7.0 0.00 0.00 0.00 40 1011.4
20260507204020 69 278 3.5 5.2 0.00 0.00 0.00 41 1011.4
20260507203024 69 322 4.3 7.8 0.00 0.00 0.00 43 1011.3
20260507202029 68 344 4.3 7.0 0.00 0.00 0.00 42 1011.3
20260507201015 70 300 5.2 7.8 0.00 0.00 0.00 41 1011.5
20260507200020 69 263 3.5 6.1 0.00 0.00 0.00 44 1011.7
20260507195025 68 261 3.5 6.1 0.00 0.00 0.00 43 1011.8
20260507194030 67 310 2.6 3.5 0.00 0.00 0.00 43 1011.9
20260507193016 68 292 4.3 6.1 0.00 0.00 0.00 42 1012.1
20260507192022 68 329 4.3 7.0 0.00 0.00 0.00 43 1012.2
20260507191026 68 296 3.5 7.8 0.00 0.00 0.00 43 1012.2
20260507190031 68 307 6.1 11.3 0.00 0.00 0.00 42 1012.2
20260507185017 67 240 2.6 5.2 0.00 0.00 0.00 44 1012.3
20260507184022 67 283 2.6 3.5 0.00 0.00 0.00 43 1012.5
20260507183027 67 278 4.3 7.8 0.00 0.00 0.00 44 1012.6
20260507182032 67 304 4.3 7.0 0.00 0.00 0.00 44 1012.7
20260507181018 66 312 4.3 7.0 0.00 0.00 0.00 45 1012.8
20260507180023 65 311 3.5 6.1 0.00 0.00 0.00 43 1013.2
20260507175028 65 271 5.2 10.4 0.00 0.00 0.00 44 1013.2
20260507174033 66 317 3.5 6.1 0.00 0.00 0.00 43 1013.2
20260507173019 65 296 3.5 6.1 0.00 0.00 0.00 43 1013.3
20260507172025 65 258 4.3 7.8 0.00 0.00 0.00 43 1013.5
20260507171029 65 291 4.3 7.8 0.00 0.00 0.00 45 1013.7
20260507170016 64 310 2.6 5.2 0.00 0.00 0.00 45 1014.0
20260507165020 65 281 4.3 8.7 0.00 0.00 0.00 46 1014.0
20260507164025 64 259 3.5 6.1 0.00 0.00 0.00 45 1014.1
20260507163031 62 201 2.6 4.3 0.00 0.00 0.00 47 1014.2
20260507162018 63 293 4.3 7.0 0.00 0.00 0.00 48 1014.4
20260507161023 62 266 2.6 4.3 0.00 0.00 0.00 46 1014.6
20260507160027 62 335 2.6 4.3 0.00 0.00 0.00 48 1014.6
20260507155031 62 275 4.3 7.0 0.00 0.00 0.00 48 1014.6
20260507154018 61 177 2.6 4.3 0.00 0.00 0.00 50 1014.7
20260507153024 61 275 3.5 4.3 0.00 0.00 0.00 50 1015.0
20260507152049 60 290 2.6 4.3 0.00 0.00 0.00 51 1015.3
20260507151033 59 285 2.6 5.2 0.00 0.00 0.00 51 1015.4
20260507150019 60 293 2.6 4.3 0.00 0.00 0.00 51 1015.7
20260507145104 58 213 2.6 4.3 0.00 0.00 0.00 51 1015.8
20260507144029 59 271 4.3 6.1 0.00 0.00 0.00 51 1015.9
20260507143016 58 347 4.3 7.0 0.00 0.04 0.00 51 1015.9
20260507142020 58 293 3.5 5.2 0.00 0.05 0.00 49 1016.0
20260507141026 57 258 3.5 4.3 0.00 0.07 0.00 49 1016.3
20260507140044 56 240 2.6 4.3 0.00 0.09 0.00 52 1016.4
20260507135017 56 264 1.7 4.3 0.00 0.11 0.00 52 1016.5
20260507134023 54 46 1.7 3.5 0.00 0.14 0.00 52 1016.6
20260507133020 54 317 1.7 3.5 0.00 0.18 0.00 54 1016.6
20260507132019 53 314 1.7 3.5 0.00 0.18 0.00 55 1016.5
20260507131018 52 295 2.6 3.5 0.00 0.20 0.00 55 1016.5
20260507130018 52 296 3.5 4.3 0.00 0.20 0.00 58 1016.4
20260507125015 52 296 2.6 4.3 0.00 0.20 0.00 57 1016.4
20260507124033 52 296 2.6 4.3 0.00 0.20 0.00 61 1016.4
20260507123019 52 282 3.5 4.3 0.00 0.20 0.00 59 1016.4
20260507122044 52 300 1.7 2.6 0.00 0.20 0.00 60 1016.5
20260507121028 51 302 2.6 4.3 0.00 0.20 0.00 59 1016.5
20260507120034 51 317 2.6 3.5 0.00 0.21 0.00 60 1016.4
20260507115040 51 301 1.7 3.5 0.00 0.21 0.00 62 1016.5
20260507114024 51 303 3.5 4.3 0.00 0.22 0.00 62 1016.5
20260507113030 51 314 2.6 4.3 0.00 0.22 0.00 61 1016.4
20260507112016 50 317 1.7 2.6 0.00 0.22 0.00 66 1016.3
20260507111042 50 315 0.0 1.7 0.00 0.22 0.00 65 1016.0
20260507110025 50 309 1.7 3.5 0.00 0.22 0.00 66 1015.9
20260507105112 49 287 0.9 2.6 0.00 0.22 0.00 67 1015.8
20260507104037 49 321 1.7 2.6 0.00 0.22 0.00 67 1015.7
20260507103022 49 349 1.7 3.5 0.00 0.22 0.00 68 1015.6
20260507102027 49 300 0.9 2.6 0.00 0.22 0.00 69 1015.4
20260507101031 49 10 1.7 2.6 0.00 0.22 0.00 69 1015.3
20260507100038 49 0.0 0.0 0.00 0.22 0.00 68 1015.3
20260507095023 50 32 0.0 1.7 0.00 0.22 0.00 68 1015.2
20260507094037 50 0.0 0.0 0.00 0.22 0.00 68 1015.2
20260507093017 50 327 1.7 3.5 0.00 0.22 0.00 69 1015.2
20260507092022 50 317 1.7 3.5 0.00 0.22 0.00 68 1015.1